Other Public Products
Issued by NWS Charleston, SC

Current Version | Previous Version | Graphics & Text | Print | Product List | Glossary On
Versions: 1 2 3 4 5 6 7 8 9 10 11 12 13 14 15 16 17 18 19 20 21 22 23 24 25 26 27 28 29 30 31 32 33 34 35 36 37 38 39 40 41 42 43 44 45 46 47 48 49 50
000 FPUS82 KCHS 230612 OPUCHS TEST...KCHS/KSAV Gateway Observations...TEST National Weather Service Charleston SC 200 AM EDT SUN JUL 23 2017 NOTE: "fair" indicates few or no clouds below 12,000 feet with no significant weather and/or obstructions to visibility. SCZ050-WAZ558-NCZ071-TXZ119-213-PAZ071-DCZ001-FLZ074-172-MI076- NYZ176-178-MAZ016-IL014-TNZ027-NJZ106-GAZ044-MD014-230700- ...Gateway Observations for Charleston International... CITY SKY/WX TMP DP RH WIND PRES REMARKS Chas Airport CLEAR 79 75 87 SW7 29.94F 6HR MIN TEMP: 78; 6HR MAX TEMP: 84; Seattle CLEAR 67 58 72 N14 30.11S 6HR MIN TEMP: 67; 6HR MAX TEMP: 85; Charlotte PTCLDY 81 72 74 SW6 29.92F 6HR MIN TEMP: 81; 6HR MAX TEMP: 90; Dallas DFW PTCLDY 87 71 58 S14 29.89S HX 93 6HR MIN TEMP: 87; 6HR MAX TEMP: 98; Dallas Love PTCLDY 87 71 58 S14 29.90S HX 93 6HR MIN TEMP: 87; 6HR MAX TEMP: 98; Philladelphia MOCLDY 79 72 79 SW12 29.74F 6HR MIN TEMP: 79; 6HR MAX TEMP: 84; Wash National CLOUDY 76 75 97 SW5 29.78F 6HR MIN TEMP: 75; 6HR MAX TEMP: 77; 6HR PCP: 0.47; Baltimore MOCLDY 73 73 100 SW6 29.76F 6HR MIN TEMP: 73; 6HR MAX TEMP: 74; 6HR PCP: 0.04; Miami MOCLDY 83 75 77 E5 30.05F HX 90 6HR MIN TEMP: 83; 6HR MAX TEMP: 86; Detroit PTCLDY 72 68 87 NW8 29.79S 6HR MIN TEMP: 72; 6HR MAX TEMP: 81; Newark CLOUDY 71 71 100 E3 29.74F FOG 6HR MIN TEMP: 71; 6HR MAX TEMP: 80; 6HR PCP: 0.40; Laguardia LGT RAIN 73 71 93 VRB5 29.72F 6HR MIN TEMP: 72; 6HR MAX TEMP: 83; 6HR PCP: 0.58; J F K RAIN 71 71 100 NE10 29.74F FOG 6HR MIN TEMP: 71; 6HR MAX TEMP: 80; 6HR PCP: 0.95; Boston Logan CLOUDY 71 66 84 SE3 29.76F 6HR MIN TEMP: 71; 6HR MAX TEMP: 78; 6HR PCP: TRACE; Ft. Lauderdale MOCLDY 83 76 79 SE7 30.04F HX 91 6HR MIN TEMP: 83; 6HR MAX TEMP: 85; Chicago O`Hare PTCLDY 73 69 87 S3 29.79S 6HR MIN TEMP: 73; 6HR MAX TEMP: 83; Chicago Midway PTCLDY 75 70 84 S5 29.79F 6HR MIN TEMP: 75; 6HR MAX TEMP: 83; Houston Bush PTCLDY 80 76 87 S6 29.94F 6HR MIN TEMP: 75; 6HR MAX TEMP: 81; 6HR PCP: 0.02; Houston Hobby PTCLDY 83 75 77 S7 29.94F HX 90 6HR MIN TEMP: 82; 6HR MAX TEMP: 89; Nashville PTCLDY 83 73 72 SW7 29.92F 6HR MIN TEMP: 83; 6HR MAX TEMP: 93; Atlanta PTCLDY 76 75 97 W5 29.98F 6HR MIN TEMP: 76; 6HR MAX TEMP: 81; $$ GAZ044-118-TXZ119-213-NCZ071-DCZ001-MDZ014-506-PAZ021-071-NJZ106- NYZ176-178-MAZ106-OHZ011-021-055-MIZ076-KYZ091-ILZ014-INZ047- MNZ060-ONZ431-230700- ...Gateway Observations for Savannah International... CITY SKY/WX TMP DP RH WIND PRES REMARKS Savannah Arpt CLEAR N/A N/A N/A SW7 29.98F Atlanta PTCLDY 76 75 97 W5 29.98F 6HR MIN TEMP: 76; 6HR MAX TEMP: 81; Charlotte PTCLDY 81 72 74 SW6 29.92F 6HR MIN TEMP: 81; 6HR MAX TEMP: 90; Dallas DFW PTCLDY 87 71 58 S14 29.89S HX 93 6HR MIN TEMP: 87; 6HR MAX TEMP: 98; Houston Bush PTCLDY 80 76 87 S6 29.94F 6HR MIN TEMP: 75; 6HR MAX TEMP: 81; 6HR PCP: 0.02; Wash National CLOUDY 76 75 97 SW5 29.78F 6HR MIN TEMP: 75; 6HR MAX TEMP: 77; 6HR PCP: 0.47; Wash Dulles CLOUDY 74 72 93 S6 29.78F 6HR MIN TEMP: 72; 6HR MAX TEMP: 74; 6HR PCP: 0.04; Baltimore MOCLDY 73 73 100 SW6 29.76F 6HR MIN TEMP: 73; 6HR MAX TEMP: 74; 6HR PCP: 0.04; Philadelphia MOCLDY 79 72 79 SW12 29.74F 6HR MIN TEMP: 79; 6HR MAX TEMP: 84; Newark CLOUDY 71 71 100 E3 29.74F FOG 6HR MIN TEMP: 71; 6HR MAX TEMP: 80; 6HR PCP: 0.40; Laguardia LGT RAIN 73 71 93 VRB5 29.72F 6HR MIN TEMP: 72; 6HR MAX TEMP: 83; 6HR PCP: 0.58; J F K RAIN 71 71 100 NE10 29.74F FOG 6HR MIN TEMP: 71; 6HR MAX TEMP: 80; 6HR PCP: 0.95; Boston CLOUDY 71 66 84 SE3 29.76F 6HR MIN TEMP: 71; 6HR MAX TEMP: 78; 6HR PCP: TRACE; Pittsburg MOCLDY 73 73 100 W6 29.80F 6HR MIN TEMP: 73; 6HR MAX TEMP: 74; Akron PTCLDY 73 69 87 W5 29.80F 6HR MIN TEMP: 73; 6HR MAX TEMP: 81; Cleveland PTCLDY 75 71 87 W5 29.79F 6HR MIN TEMP: 75; 6HR MAX TEMP: 83; 6HR PCP: TRACE; Cincinnati CLOUDY 72 72 100 S5 29.84F 6HR MIN TEMP: 72; 6HR MAX TEMP: 80; 6HR PCP: 0.20; Columbus CLOUDY 74 73 98 SW6 29.83R Detroit PTCLDY 72 68 87 NW8 29.79S 6HR MIN TEMP: 72; 6HR MAX TEMP: 81; Chicago O`Hare PTCLDY 73 69 87 S3 29.79S 6HR MIN TEMP: 73; 6HR MAX TEMP: 83; Minneapolis PTCLDY 72 61 68 NW6 29.84S 6HR MIN TEMP: 72; 6HR MAX TEMP: 88; Indianapolis CLOUDY 76 74 93 S8 29.81F 6HR MIN TEMP: 76; 6HR MAX TEMP: 84; 6HR PCP: 0.01; Toronto Canada CLOUDY 70 64 83 VRB2 29.79S $$

USA.gov is the U.S. government's official web portal to all federal, state and local government web resources and services.